Location: Helsinki
(60.1699°N, 24.9384°E)
Time: 02:41:19
(UTC+02:00)

A-11 Canister half - All Passes

Search period start: 27 October 2020 00:00
Search period end: 06 November 2020 00:00
Orbit: 1515 x 1685 km, 47.2° (Epoch: 26 October)

Date Brightness Start Highest point End Pass type
(mag) Time Alt. Az. Time Alt. Az. Time Alt. Az.
27 Oct - 01:33:26 10° W 01:41:49 33° SSW 01:49:57 10° SE visible
27 Oct - 03:38:36 10° W 03:44:18 17° SW 03:49:53 10° S visible
27 Oct - 19:07:20 10° SSE 19:10:31 12° SE 19:13:42 10° ESE visible
27 Oct - 21:04:43 10° SSW 21:12:42 28° SSE 21:20:32 10° E visible
27 Oct - 23:06:52 10° WSW 23:15:47 38° S 23:24:26 10° ESE visible
28 Oct - 01:10:32 10° WSW 01:19:00 34° SSW 01:27:13 10° SE night (unlit)
28 Oct - 03:15:33 10° W 03:21:32 18° SW 03:27:24 10° S visible
28 Oct - 18:45:20 10° SE 18:47:46 11° SE 18:50:11 10° ESE visible
28 Oct - 20:41:59 10° SSW 20:49:53 27° SSE 20:57:37 10° E visible
28 Oct - 22:44:00 10° WSW 22:52:56 38° S 23:01:36 10° ESE visible
29 Oct - 00:47:38 10° WSW 00:56:10 34° SSW 01:04:28 10° SE night (unlit)
29 Oct - 02:52:31 10° W 02:58:46 19° SW 03:04:53 10° S night (unlit)
29 Oct - 18:23:52 10° SE 18:25:01 10° SE 18:26:10 10° ESE visible
29 Oct - 20:19:16 10° SSW 20:27:04 26° SSE 20:34:43 10° E visible
29 Oct - 22:21:09 10° SW 22:30:05 38° S 22:38:46 10° ESE visible
30 Oct - 00:24:43 10° WSW 00:33:20 35° SSW 00:41:43 10° SE night (unlit)
30 Oct - 02:29:29 10° W 02:35:59 20° SW 02:42:21 10° S night (unlit)
30 Oct - 19:56:34 10° SSW 20:04:15 26° SSE 20:11:48 10° E visible
30 Oct - 21:58:18 10° SW 22:07:14 38° S 22:15:55 10° ESE visible
31 Oct - 00:01:49 10° WSW 00:10:30 36° SSW 00:18:56 10° SE visible
31 Oct - 02:06:28 10° W 02:13:12 21° SW 02:19:48 10° S night (unlit)
31 Oct - 19:33:53 10° SSW 19:41:26 25° SE 19:48:52 10° E visible
31 Oct - 21:35:28 10° SW 21:44:23 38° S 21:53:05 10° ESE visible
31 Oct - 23:38:54 10° WSW 23:47:40 36° SSW 23:56:11 10° SE visible
01 Nov - 01:43:28 10° W 01:50:26 22° SW 01:57:13 10° S night (unlit)
01 Nov - 19:11:12 10° SSW 19:18:38 24° SE 19:25:56 10° E visible
01 Nov - 21:12:38 10° SW 21:21:32 37° SSE 21:30:13 10° ESE visible
01 Nov - 23:16:00 10° WSW 23:24:49 37° SSW 23:33:24 10° SE visible
02 Nov - 01:20:29 10° W 01:27:38 23° SW 01:34:37 10° S night (unlit)
02 Nov - 18:48:32 10° S 18:55:49 23° SE 19:03:00 10° E visible
02 Nov - 20:49:48 10° SW 20:58:41 37° SSE 21:07:22 10° ESE visible
02 Nov - 22:53:06 10° WSW 23:01:58 37° SSW 23:10:36 10° SE visible
03 Nov - 00:57:30 10° W 01:04:50 24° SW 01:12:00 10° SSE night (unlit)
03 Nov - 18:25:54 10° S 18:33:01 22° SE 18:40:02 10° E visible
03 Nov - 20:26:58 10° SW 20:35:50 36° SSE 20:44:31 10° ESE visible
03 Nov - 22:30:12 10° WSW 22:39:08 38° S 22:47:49 10° SE visible
04 Nov - 00:34:32 10° W 00:42:03 25° SW 00:49:22 10° SSE visible
04 Nov - 18:03:16 10° S 18:10:12 21° SE 18:17:04 10° E visible
04 Nov - 20:04:09 10° SW 20:12:58 36° SSE 20:21:39 10° ESE visible
04 Nov - 22:07:19 10° WSW 22:16:16 38° S 22:25:01 10° SE visible
05 Nov - 00:11:34 10° W 00:19:14 26° SSW 00:26:43 10° SSE visible
05 Nov - 17:40:40 10° S 17:47:24 20° SE 17:54:05 10° E visible
05 Nov - 19:41:20 10° SW 19:50:08 35° SSE 19:58:47 10° ESE visible
05 Nov - 21:44:25 10° WSW 21:53:25 39° S 22:02:13 10° SE visible
